Regional Weather Roundup
Issued by NWS Charleston, WV

Home | Current Version | Previous Version | Text Only | Print | Product List | Glossary On
Versions: 1 2 3 4 5 6 7 8 9 10 11 12 13 14 15 16 17 18 19 20 21 22 23 24 25 26 27 28 29 30 31 32 33 34 35 36 37 38 39 40 41 42 43 44 45 46 47 48 49 50
000
ASUS41 KRLX 302310
RWRRLX
West Virginia Regional Weather Roundup
National Weather Service Charleston WV
600 PM EST FRI JAN 30 2015

Note: "fair" indicates few or no clouds below 12,000 feet with no
significant weather and/or obstructions to visibility.

WVZ003-310000-
Northern Panhandle of West Virginia

CITY           SKY/WX    TMP DP  RH WIND       PRES   REMARKS
WHEELING       CLOUDY    15   7  70 NW12      30.37R WCI   2
$$

WVZ009-310000-
Northwest West Virginia

CITY           SKY/WX    TMP DP  RH WIND       PRES   REMARKS
PARKERSBURG    PTCLDY    23   9  55 NW9       30.44R
$$

WVZ006-310000-
Western West Virginia

CITY           SKY/WX    TMP DP  RH WIND       PRES   REMARKS
HUNTINGTON     CLEAR     26  13  57 N6        30.42R
$$

WVZ015-310000-
West Central West Virginia

CITY           SKY/WX    TMP DP  RH WIND       PRES   REMARKS
CHARLESTON     PTCLDY    26  10  50 W8G20     30.40R
$$

WVZ022-031-310000-
North Central West Virginia

CITY           SKY/WX    TMP DP  RH WIND       PRES   REMARKS
CLARKSBURG     CLOUDY    20  10  65 NW10      30.34R WCI   9
MORGANTOWN     FLURRIES  19  10  68 NW9       30.34R WCI   8
$$

WVZ025-035-042-045-310000-
Southern West Virginia

CITY           SKY/WX    TMP DP  RH WIND       PRES   REMARKS
BECKLEY        MOCLDY    19   7  59 NW13G21   30.26R WCI   6
LOGAN            N/A     25  12  58 VRB3      30.35R
BLUEFIELD      CLEAR     23   8  52 NW13G20   30.22R
LEWISBURG      FLURRIES  23  10  58 NW8G18    30.24R
$$

WVZ047-310000-
Northern Mountains of West Virginia

CITY           SKY/WX    TMP DP  RH WIND       PRES   REMARKS
ELKINS         CLOUDY    19  11  70 NW10      30.26S WCI   7
$$

WVZ052-310000-
Eastern Panhandle of West Virginia

CITY           SKY/WX    TMP DP  RH WIND       PRES   REMARKS
MARTINSBURG    MOCLDY    25   7  46 NW20G32   30.23R
PETERSBURG     CLOUDY    26   8  47 NW9       30.27R
$$



USA.gov is the U.S. government's official web portal to all federal, state and local government web resources and services.